| time (UTC) | temp C | wind direction | speed KPH | gust KPH | rain 1hr cm | rain 24hr cm | rain mn cm | humidity % | barometer mb |
| 20260506024247 | 10 | 52 | 4.8 | 19.3 | 0.00 | 0.00 | 0.00 | 77 | 1010.9 |
| 20260506023247 | 10 | 41 | 1.6 | 14.5 | 0.00 | 0.00 | 0.00 | 77 | 1010.6 |
| 20260506022307 | 10 | 312 | 8.0 | 16.1 | 0.00 | 0.00 | 0.00 | 77 | 1010.6 |
| 20260506021246 | 10 | 325 | 8.0 | 16.1 | 0.00 | 0.00 | 0.00 | 77 | 1010.3 |
| 20260506020247 | 10 | 58 | 4.8 | 16.1 | 0.00 | 0.00 | 0.00 | 78 | 1009.9 |
| 20260506015246 | 10 | 10 | 9.7 | 20.9 | 0.00 | 0.00 | 0.00 | 77 | 1009.8 |
| 20260506014306 | 10 | 120 | 3.2 | 20.9 | 0.00 | 0.00 | 0.00 | 77 | 1009.7 |
| 20260506013246 | 10 | 28 | 16.1 | 20.9 | 0.00 | 0.00 | 0.00 | 77 | 1009.1 |
| 20260506012246 | 10 | 355 | 8.0 | 22.5 | 0.00 | 0.00 | 0.00 | 77 | 1009.0 |
| 20260506011246 | 10 | 9 | 1.6 | 22.5 | 0.00 | 0.00 | 0.00 | 77 | 1009.0 |
| 20260506010246 | 10 | 349 | 20.9 | 20.9 | 0.00 | 0.00 | 0.00 | 77 | 1009.0 |
| 20260506005245 | 10 | 32 | 4.8 | 24.1 | 0.00 | 0.00 | 0.00 | 76 | 1008.9 |
| 20260506004245 | 10 | 360 | 3.2 | 17.7 | 0.00 | 0.00 | 0.00 | 76 | 1008.9 |
| 20260506003305 | 10 | 347 | 6.4 | 16.1 | 0.00 | 0.00 | 0.00 | 75 | 1009.1 |
| 20260506002245 | 10 | 16 | 4.8 | 19.3 | 0.00 | 0.00 | 0.00 | 74 | 1008.7 |
| 20260506001245 | 11 | 26 | 4.8 | 19.3 | 0.00 | 0.00 | 0.00 | 74 | 1008.2 |
| 20260506000247 | 11 | 317 | 8.0 | 11.3 | 0.00 | 0.00 | 0.00 | 73 | 1008.4 |
| 20260505235245 | 11 | 239 | 3.2 | 22.5 | 0.00 | 0.00 | 0.00 | 72 | 1008.5 |
| 20260505234245 | 11 | 5 | 3.2 | 19.3 | 0.00 | 0.00 | 0.00 | 73 | 1008.3 |
| 20260505233245 | 11 | 5 | 4.8 | 17.7 | 0.00 | 0.00 | 0.00 | 73 | 1008.4 |
| 20260505232244 | 11 | 39 | 9.7 | 22.5 | 0.00 | 0.00 | 0.00 | 73 | 1008.3 |
| 20260505231244 | 11 | 19 | 9.7 | 17.7 | 0.00 | 0.00 | 0.00 | 72 | 1008.2 |
| 20260505230244 | 11 | 15 | 12.9 | 17.7 | 0.00 | 0.00 | 0.00 | 72 | 1007.9 |
| 20260505225305 | 11 | 336 | 6.4 | 25.7 | 0.00 | 0.00 | 0.00 | 72 | 1007.7 |
| 20260505224244 | 11 | 5 | 4.8 | 20.9 | 0.00 | 0.00 | 0.00 | 72 | 1007.3 |
| 20260505223243 | 11 | 288 | 3.2 | 20.9 | 0.00 | 0.00 | 0.00 | 72 | 1007.5 |
| 20260505222243 | 11 | 344 | 12.9 | 27.4 | 0.00 | 0.00 | 0.00 | 71 | 1007.0 |
| 20260505221243 | 12 | 348 | 14.5 | 22.5 | 0.00 | 0.00 | 0.00 | 71 | 1006.7 |
| 20260505220243 | 12 | 355 | 4.8 | 11.3 | 0.00 | 0.00 | 0.00 | 73 | 1006.9 |
| 20260505215243 | 12 | 19 | 6.4 | 20.9 | 0.00 | 0.00 | 0.00 | 74 | 1007.2 |
| 20260505214243 | 12 | 344 | 8.0 | 16.1 | 0.00 | 0.00 | 0.00 | 74 | 1006.8 |
| 20260505213243 | 12 | 350 | 4.8 | 9.7 | 0.00 | 0.00 | 0.00 | 73 | 1007.2 |
| 20260505212243 | 12 | 355 | 3.2 | 24.1 | 0.00 | 0.00 | 0.00 | 73 | 1007.0 |
| 20260505211242 | 12 | 5 | 4.8 | 24.1 | 0.00 | 0.00 | 0.00 | 73 | 1006.8 |
| 20260505210242 | 12 | 325 | 12.9 | 16.1 | 0.00 | 0.00 | 0.00 | 74 | 1006.4 |
| 20260505205242 | 12 | 294 | 4.8 | 27.4 | 0.00 | 0.00 | 0.00 | 75 | 1006.6 |
| 20260505204242 | 12 | 221 | 6.4 | 27.4 | 0.00 | 0.00 | 0.00 | 77 | 1006.7 |
| 20260505203242 | 12 | 327 | 8.0 | 16.1 | 0.00 | 0.00 | 0.00 | 78 | 1006.9 |
| 20260505202242 | 12 | 200 | 4.8 | 24.1 | 0.00 | 0.00 | 0.00 | 78 | 1006.6 |
| 20260505201302 | 12 | 225 | 6.4 | 20.9 | 0.00 | 0.00 | 0.00 | 78 | 1006.3 |
| 20260505200242 | 12 | 61 | 3.2 | 8.0 | 0.00 | 0.00 | 0.00 | 78 | 1006.2 |
| 20260505195242 | 12 | 341 | 11.3 | 25.7 | 0.00 | 0.00 | 0.00 | 78 | 1006.5 |
| 20260505194241 | 12 | 341 | 8.0 | 25.7 | 0.00 | 0.00 | 0.00 | 78 | 1006.3 |
| 20260505193241 | 12 | 355 | 8.0 | 11.3 | 0.00 | 0.00 | 0.00 | 79 | 1006.3 |
| 20260505192241 | 12 | 360 | 3.2 | 20.9 | 0.00 | 0.00 | 0.00 | 79 | 1005.9 |
| 20260505191241 | 12 | 26 | 8.0 | 17.7 | 0.00 | 0.00 | 0.00 | 79 | 1005.9 |
| 20260505190241 | 13 | 360 | 12.9 | 16.1 | 0.00 | 0.00 | 0.00 | 79 | 1005.9 |
| 20260505185241 | 13 | 15 | 3.2 | 22.5 | 0.00 | 0.00 | 0.00 | 80 | 1005.6 |
| 20260505184241 | 13 | 5 | 8.0 | 17.7 | 0.00 | 0.00 | 0.00 | 80 | 1005.7 |
| 20260505183240 | 13 | 23 | 6.4 | 8.0 | 0.00 | 0.00 | 0.00 | 81 | 1005.7 |
| 20260505182300 | 13 | 311 | 3.2 | 19.3 | 0.00 | 0.00 | 0.00 | 81 | 1005.9 |
| 20260505181240 | 13 | 41 | 6.4 | 19.3 | 0.00 | 0.00 | 0.00 | 81 | 1006.0 |
| 20260505180240 | 13 | 176 | 4.8 | 19.3 | 0.00 | 0.00 | 0.00 | 82 | 1005.6 |
| 20260505175300 | 13 | 5 | 4.8 | 22.5 | 0.00 | 0.00 | 0.00 | 83 | 1005.0 |
| 20260505174240 | 13 | 209 | 3.2 | 20.9 | 0.00 | 0.00 | 0.00 | 83 | 1005.1 |
| 20260505173240 | 13 | 40 | 4.8 | 16.1 | 0.00 | 0.00 | 0.00 | 83 | 1004.9 |
| 20260505172239 | 13 | 355 | 8.0 | 24.1 | 0.00 | 0.00 | 0.00 | 83 | 1005.1 |
| 20260505171259 | 13 | 15 | 9.7 | 24.1 | 0.00 | 0.00 | 0.00 | 83 | 1005.1 |
| 20260505170239 | 13 | 360 | 8.0 | 14.5 | 0.00 | 0.00 | 0.00 | 84 | 1004.2 |
| 20260505165239 | 13 | 348 | 12.9 | 19.3 | 0.00 | 0.00 | 0.00 | 83 | 1004.2 |
| 20260505164239 | 14 | 13 | 4.8 | 19.3 | 0.00 | 0.00 | 0.00 | 84 | 1003.8 |
| 20260505163239 | 14 | 324 | 3.2 | 8.0 | 0.00 | 0.00 | 0.00 | 84 | 1003.9 |
| 20260505162239 | 15 | 16 | 4.8 | 19.3 | 0.00 | 0.00 | 0.00 | 83 | 1003.9 |
| 20260505161238 | 15 | 32 | 6.4 | 17.7 | 0.00 | 0.00 | 0.00 | 83 | 1003.5 |
| 20260505160239 | 15 | 39 | 4.8 | 8.0 | 0.00 | 0.00 | 0.00 | 82 | 1003.4 |
| 20260505153238 | 18 | 5 | 0.0 | 4.8 | 0.00 | 0.00 | 0.00 | 80 | 1002.8 |
| 20260505152238 | 18 | 60 | 3.2 | 16.1 | 0.00 | 0.00 | 0.00 | 82 | 1002.7 |
| 20260505151238 | 19 | 59 | 4.8 | 16.1 | 0.00 | 0.00 | 0.00 | 81 | 1002.5 |
| 20260505150238 | 20 | 334 | 0.0 | 3.2 | 0.00 | 0.00 | 0.00 | 80 | 1002.3 |
| 20260505140317 | 20 | 80 | 1.6 | 8.0 | 0.00 | 0.00 | 0.00 | 80 | 1001.9 |
| 20260505130236 | 18 | 74 | 12.9 | 14.5 | 0.00 | 0.00 | 0.00 | 82 | 1002.0 |
| 20260505124236 | 18 | 85 | 4.8 | 14.5 | 0.00 | 0.00 | 0.00 | 82 | 1002.2 |
| 20260505123256 | 18 | 66 | 4.8 | 8.0 | 0.00 | 0.00 | 0.00 | 82 | 1002.0 |
| 20260505122235 | 18 | 53 | 3.2 | 16.1 | 0.00 | 0.00 | 0.00 | 83 | 1001.6 |
| 20260505121235 | 18 | 63 | 4.8 | 14.5 | 0.00 | 0.00 | 0.00 | 83 | 1001.8 |
| 20260505120235 | 18 | 82 | 14.5 | 14.5 | 0.00 | 0.00 | 0.00 | 83 | 1001.9 |
| 20260505115235 | 18 | 62 | 4.8 | 16.1 | 0.00 | 0.00 | 0.00 | 83 | 1001.8 |
| 20260505114235 | 18 | 41 | 4.8 | 16.1 | 0.00 | 0.00 | 0.00 | 83 | 1001.6 |
| 20260505113235 | 18 | 78 | 4.8 | 4.8 | 0.00 | 0.00 | 0.00 | 83 | 1001.7 |
| 20260505112235 | 18 | 5 | 4.8 | 16.1 | 0.00 | 0.00 | 0.00 | 82 | 1001.7 |
| 20260505111254 | 18 | 61 | 4.8 | 16.1 | 0.00 | 0.00 | 0.00 | 83 | 1001.5 |
| 20260505110234 | 18 | 83 | 4.8 | 9.7 | 0.00 | 0.00 | 0.00 | 83 | 1001.2 |
| 20260505101234 | 18 | 46 | 3.2 | 16.1 | 0.00 | 0.00 | 0.00 | 84 | 1000.6 |
| 20260505100233 | 18 | 47 | 6.4 | 16.1 | 0.00 | 0.00 | 0.00 | 83 | 1000.4 |
| 20260505095253 | 18 | 61 | 8.0 | 14.5 | 0.00 | 0.00 | 0.00 | 84 | 1000.2 |
| 20260505094233 | 18 | 54 | 8.0 | 12.9 | 0.00 | 0.00 | 0.00 | 84 | 1000.3 |
| 20260505093233 | 18 | 52 | 4.8 | 11.3 | 0.00 | 0.00 | 0.00 | 84 | 1000.3 |
| 20260505092253 | 18 | 63 | 11.3 | 20.9 | 0.00 | 0.00 | 0.00 | 84 | 1000.5 |
| 20260505091233 | 18 | 53 | 6.4 | 20.9 | 0.00 | 0.00 | 0.00 | 83 | 1000.6 |
| 20260505090233 | 18 | 77 | 6.4 | 20.9 | 0.00 | 0.00 | 0.00 | 82 | 1000.6 |
| 20260505085233 | 18 | 65 | 8.0 | 16.1 | 0.00 | 0.00 | 0.00 | 80 | 1000.8 |
| 20260505084232 | 18 | 55 | 8.0 | 16.1 | 0.00 | 0.00 | 0.00 | 79 | 1000.7 |
| 20260505083232 | 19 | 57 | 8.0 | 12.9 | 0.00 | 0.00 | 0.00 | 77 | 1000.8 |
| 20260505082232 | 20 | 74 | 17.7 | 17.7 | 0.00 | 0.00 | 0.00 | 76 | 1000.7 |
| 20260505081232 | 20 | 52 | 6.4 | 14.5 | 0.00 | 0.00 | 0.00 | 76 | 1000.6 |
| 20260505080232 | 20 | 69 | 8.0 | 12.9 | 0.00 | 0.00 | 0.00 | 76 | 1000.5 |
| 20260505075232 | 20 | 70 | 3.2 | 12.9 | 0.00 | 0.00 | 0.00 | 76 | 1001.2 |
| 20260505074232 | 20 | 34 | 6.4 | 12.9 | 0.00 | 0.00 | 0.00 | 76 | 1001.3 |
| 20260505073231 | 20 | 27 | 3.2 | 9.7 | 0.00 | 0.00 | 0.00 | 76 | 1001.4 |
| 20260505072232 | 20 | 26 | 4.8 | 11.3 | 0.00 | 0.00 | 0.00 | 76 | 1001.5 |
| 20260505071231 | 20 | 62 | 1.6 | 6.4 | 0.00 | 0.00 | 0.00 | 75 | 1001.6 |
| 20260505070231 | 20 | 10 | 3.2 | 3.2 | 0.00 | 0.00 | 0.00 | 75 | 1001.6 |
| 20260505065231 | 20 | 54 | 1.6 | 6.4 | 0.00 | 0.00 | 0.00 | 75 | 1001.8 |
| 20260505064231 | 20 | 22 | 3.2 | 6.4 | 0.00 | 0.00 | 0.00 | 74 | 1002.2 |
| 20260505063231 | 20 | 351 | 3.2 | 4.8 | 0.00 | 0.00 | 0.00 | 74 | 1002.0 |
| 20260505062231 | 20 | 19 | 1.6 | 4.8 | 0.00 | 0.00 | 0.00 | 73 | 1001.9 |
| 20260505061231 | 20 | 329 | 0.0 | 4.8 | 0.00 | 0.00 | 0.00 | 73 | 1001.7 |
| 20260505060230 | 20 | 61 | 1.6 | 3.2 | 0.00 | 0.00 | 0.00 | 73 | 1001.4 |
| 20260505055230 | 20 | 148 | 0.0 | 11.3 | 0.00 | 0.00 | 0.00 | 72 | 1001.0 |
| 20260505054250 | 20 | 149 | 4.8 | 11.3 | 0.00 | 0.00 | 0.00 | 72 | 1001.0 |
| 20260505053250 | 20 | 121 | 0.0 | 8.0 | 0.00 | 0.00 | 0.00 | 71 | 1001.0 |
| 20260505052230 | 20 | 108 | 3.2 | 12.9 | 0.00 | 0.00 | 0.00 | 71 | 1001.0 |
| 20260505051230 | 20 | 205 | 4.8 | 12.9 | 0.00 | 0.00 | 0.00 | 71 | 1001.2 |
| 20260505050230 | 20 | 138 | 3.2 | 6.4 | 0.00 | 0.00 | 0.00 | 70 | 1000.9 |
| 20260505041249 | 21 | 97 | 3.2 | 14.5 | 0.00 | 0.00 | 0.00 | 68 | 1001.1 |
| 20260505040229 | 21 | 188 | 6.4 | 6.4 | 0.00 | 0.00 | 0.00 | 67 | 1001.6 |
| 20260505035229 | 21 | 85 | 0.0 | 16.1 | 0.00 | 0.00 | 0.00 | 66 | 1001.7 |
| 20260505034228 | 21 | 163 | 16.1 | 16.1 | 0.00 | 0.00 | 0.00 | 65 | 1001.7 |
| 20260505033228 | 21 | 82 | 3.2 | 6.4 | 0.00 | 0.00 | 0.00 | 65 | 1001.8 |
| 20260505032248 | 21 | 68 | 3.2 | 16.1 | 0.00 | 0.00 | 0.00 | 65 | 1002.0 |
| 20260505031228 | 21 | 71 | 4.8 | 12.9 | 0.00 | 0.00 | 0.00 | 65 | 1002.1 |
| 20260505030228 | 21 | 232 | 4.8 | 12.9 | 0.00 | 0.00 | 0.00 | 64 | 1002.2 |
| 20260505025228 | 21 | 129 | 3.2 | 14.5 | 0.00 | 0.00 | 0.00 | 63 | 1002.4 |